Regional Weather Roundup
Issued by NWS

Home | Current Version | Previous Version | Text Only | Print | Product List | Glossary On
Versions: 1 2 3 4 5 6 7 8 9 10 11 12 13 14 15 16 17 18 19 20 21 22 23 24 25 26 27 28
000
ASUS45 KCYS 180610
RWRWY

WYOMING REGIONAL WEATHER ROUNDUP
NATIONAL WEATHER SERVICE CHEYENNE WY
1200 AM MDT FRI AUG 18 2017

NOTE:  "FAIR" INDICATES FEW OR NO CLOUDS BELOW 12,000 FEET
WITH NO SIGNIFICANT WEATHER AND/OR OBSTRUCTIONS TO VISIBILITY.

WYZ001-180700-
YELLOWSTONE NATIONAL PARK

CITY           SKY/WX    TMP DP  RH WIND       PRES   REMARKS
LK YELLOWSTONE   N/A     43  38  82 CALM      30.37R
6HR MIN TEMP:  43; 6HR MAX TEMP:  67;

W YELLOWSTONE  NOT AVBL

$$
WYZ002>013-054>058-071-098>099-180700-
NORTHERN WYOMING

CITY           SKY/WX    TMP DP  RH WIND       PRES   REMARKS
JACKSON        FAIR     N/A N/A N/A N7        30.28S
CODY           FAIR      62  37  39 S5        30.17S
GREYBULL       FAIR      64  35  34 W5        30.06R
6HR MIN TEMP:  63; 6HR MAX TEMP:  87;

WORLAND        FAIR      61  42  49 SW8       30.08R
6HR MIN TEMP:  58; 6HR MAX TEMP:  84;

SHERIDAN       FAIR      55  45  68 S5        30.06S
6HR MIN TEMP:  55; 6HR MAX TEMP:  81;

BUFFALO        FAIR      63  35  35 W5        30.13S
6HR MIN TEMP:  60; 6HR MAX TEMP:  79;

GILLETTE       FAIR      61  41  47 VRB3      30.08R
6HR MIN TEMP:  56; 6HR MAX TEMP:  75;

HULETT         FAIR      59  43  55 SW9       30.08R
NEWCASTLE      FAIR      54  43  66 N3        30.10S

$$
WYZ014>020-022>026-101>103-180700-
CENTRAL WYOMING

CITY           SKY/WX    TMP DP  RH WIND       PRES   REMARKS
BIG PINEY      FAIR      49  33  54 CALM      30.32S
6HR MIN TEMP:  46; 6HR MAX TEMP:  76;

PINEDALE       FAIR      45  34  65 NW6       30.33F
DUBOIS         FAIR      52  32  46 NW12      30.31F
LANDER           N/A    N/A N/A N/A MISG      30.18R
RIVERTON       FAIR      66  40  38 CALM      30.19R
6HR MIN TEMP:  66; 6HR MAX TEMP:  84;

CASPER         FAIR      60  43  53 E9        30.17R
6HR MIN TEMP:  58; 6HR MAX TEMP:  81;

DOUGLAS        FAIR      56  49  77 CALM      30.16S
6HR MIN TEMP:  55; 6HR MAX TEMP:  75;


$$
WYZ021-027>030-104>119-180700-
SOUTHERN WYOMING

CITY           SKY/WX    TMP DP  RH WIND       PRES   REMARKS
EVANSTON       FAIR      59  34  39 SE8       30.33S
6HR MIN TEMP:  58; 6HR MAX TEMP:  77;

KEMMERER         N/A     55  32  41 NW9       30.33F
FORT BRIDGER   FAIR      62  31  30 W9        30.35S
ROCK SPRINGS   FAIR      62  29  28 NW5       30.29R
6HR MIN TEMP:  62; 6HR MAX TEMP:  80;

RAWLINS        FAIR      59  31  34 VRB3      30.25R
6HR MIN TEMP:  54; 6HR MAX TEMP:  79;

SARATOGA       FAIR      57  39  51 SW9       30.27S
LARAMIE        FAIR      54  39  57 W10       30.25F
6HR MIN TEMP:  54; 6HR MAX TEMP:  74;

CHEYENNE       FAIR      58  44  60 W5        30.21F
6HR MIN TEMP:  58; 6HR MAX TEMP:  79;

TORRINGTON     FAIR      60  49  66 NW6       30.11R
6HR MIN TEMP:  60; 6HR MAX TEMP:  84; 6HR PCP: TRACE;

PINE BLUFFS    FAIR      55  46  71 NW5       30.17R

$$




USA.gov is the U.S. government's official web portal to all federal, state and local government web resources and services.